When you browse on this site, cookies collect data to enhance your experience and personalize the content and advertising you see.
Visit our Privacy Policy to learn more. By continuing to use the site, you agree to this use of cookies and data.
  • In Austria
  • List of Countries
  • For 7 days
  • Water Temperature
  • Weather Map
  • News
  • Weather Widgets
  • user-avatar
    Login

    Hourly Weather Shumen

    Today, 25 January, Saturday

    Time Temperature Precipitation Wind Pressure Humidity
    00:00 +1°C° 0 mm 1 mps 736 mmHg 65%
    01:00 0°C° 0 mm 1 mps 736 mmHg 64%
    02:00 0°C° 0 mm 1 mps 735 mmHg 64%
    03:00 0°C° 0 mm 1 mps 735 mmHg 63%
    04:00 0°C° 0 mm 1 mps 734 mmHg 63%
    05:00 0°C° 0 mm 1 mps 734 mmHg 62%
    06:00 0°C° 0 mm 1 mps 734 mmHg 60%
    07:00 +1°C° 0 mm 1 mps 734 mmHg 58%
    08:00 +1°C° 0 mm 1 mps 734 mmHg 51%
    09:00 +3°C° 0 mm 2 mps 734 mmHg 45%
    10:00 +5°C° 0 mm 2 mps 735 mmHg 38%
    11:00 +8°C° 0 mm 3 mps 735 mmHg 31%
    12:00 +8°C° 0 mm 3 mps 735 mmHg 31%
    13:00 +8°C° 0 mm 4 mps 735 mmHg 31%
    14:00 +10°C° 0 mm 4 mps 734 mmHg 31%
    15:00 +8°C° 0 mm 4 mps 734 mmHg 36%
    16:00 +7°C° 0 mm 3 mps 734 mmHg 41%
    17:00 +6°C° 0 mm 2 mps 734 mmHg 46%
    18:00 +5°C° 0 mm 2 mps 734 mmHg 48%
    19:00 +5°C° 0 mm 2 mps 734 mmHg 50%
    20:00 +4°C° 0 mm 2 mps 734 mmHg 52%
    21:00 +4°C° 0 mm 2 mps 734 mmHg 52%
    22:00 +4°C° 0 mm 2 mps 735 mmHg 52%
    23:00 +4°C° 0 mm 2 mps 735 mmHg 52%

    Tomorrow, 26 January, Sunday

    Time Temperature Precipitation Wind Pressure Humidity
    00:00 +4°C° 0 mm 2 mps 735 mmHg 54%
    01:00 +3°C° 0 mm 2 mps 734 mmHg 56%
    02:00 +3°C° 0 mm 2 mps 734 mmHg 57%
    03:00 +4°C° 0 mm 1 mps 734 mmHg 60%
    04:00 +4°C° 0 mm 1 mps 734 mmHg 62%
    05:00 +3°C° 0 mm 1 mps 734 mmHg 64%
    06:00 +3°C° 0 mm 1 mps 734 mmHg 65%
    07:00 +3°C° 0 mm 1 mps 735 mmHg 66%
    08:00 +2°C° 0 mm 0 mps 735 mmHg 66%
    09:00 +4°C° 0 mm 0 mps 735 mmHg 61%
    10:00 +6°C° 0 mm 0 mps 736 mmHg 55%
    11:00 +8°C° 0 mm 0 mps 736 mmHg 49%
    12:00 +9°C° 0 mm 0 mps 736 mmHg 47%
    13:00 +10°C° 0 mm 0 mps 736 mmHg 46%
    14:00 +12°C° 0 mm 1 mps 735 mmHg 44%
    15:00 +11°C° 0 mm 1 mps 735 mmHg 49%
    16:00 +10°C° 0 mm 1 mps 735 mmHg 53%
    17:00 +9°C° 0 mm 1 mps 735 mmHg 57%
    18:00 +8°C° 0 mm 1 mps 735 mmHg 59%
    19:00 +7°C° 0 mm 1 mps 735 mmHg 61%
    20:00 +7°C° 0 mm 1 mps 735 mmHg 63%
    21:00 +6°C° 0 mm 1 mps 734 mmHg 65%
    22:00 +6°C° 0 mm 1 mps 734 mmHg 68%
    23:00 +5°C° 0 mm 1 mps 734 mmHg 70%

    Day after tomorrow, 27 January, Monday

    Time Temperature Precipitation Wind Pressure Humidity
    00:00 +5°C° 0 mm 1 mps 734 mmHg 72%
    01:00 +5°C° 0 mm 1 mps 733 mmHg 75%
    02:00 +4°C° 0 mm 1 mps 733 mmHg 77%
    03:00 +4°C° 0 mm 1 mps 733 mmHg 80%
    04:00 +4°C° 0 mm 1 mps 733 mmHg 83%
    05:00 +4°C° 0 mm 1 mps 732 mmHg 86%
    06:00 +4°C° 0 mm 1 mps 732 mmHg 88%
    07:00 +4°C° 0 mm 1 mps 732 mmHg 90%
    08:00 +4°C° 0 mm 1 mps 732 mmHg 92%
    09:00 +5°C° 0 mm 1 mps 732 mmHg 90%
    10:00 +6°C° 0 mm 2 mps 732 mmHg 88%
    11:00 +7°C° 0 mm 2 mps 732 mmHg 86%
    12:00 +8°C° 0 mm 2 mps 732 mmHg 82%
    13:00 +9°C° 0 mm 2 mps 731 mmHg 79%
    14:00 +9°C° 0 mm 2 mps 731 mmHg 76%
    15:00 +9°C° 0.3 mm 2 mps 731 mmHg 80%
    16:00 +9°C° 0.3 mm 1 mps 730 mmHg 84%
    17:00 +8°C° 0.3 mm 1 mps 730 mmHg 88%
    18:00 +8°C° 1.6 mm 1 mps 730 mmHg 90%
    19:00 +6°C° 1.6 mm 2 mps 730 mmHg 92%
    20:00 +6°C° 1.6 mm 2 mps 730 mmHg 94%
    21:00 +5°C° 1.1 mm 2 mps 729 mmHg 93%
    22:00 +5°C° 1.1 mm 2 mps 729 mmHg 92%
    23:00 +3°C° 1.1 mm 3 mps 729 mmHg 91%

    28 January, Tuesday

    Time Temperature Precipitation Wind Pressure Humidity
    00:00 +4°C° 0.4 mm 2 mps 729 mmHg 91%
    01:00 +4°C° 0.4 mm 2 mps 729 mmHg 90%
    02:00 +4°C° 0.4 mm 2 mps 728 mmHg 89%
    03:00 +4°C° 0.1 mm 2 mps 728 mmHg 87%
    04:00 +4°C° 0.1 mm 2 mps 728 mmHg 84%
    05:00 +4°C° 0.1 mm 2 mps 728 mmHg 81%
    06:00 +4°C° 0 mm 2 mps 728 mmHg 82%
    07:00 +3°C° 0 mm 2 mps 728 mmHg 83%
    08:00 +4°C° 0 mm 1 mps 728 mmHg 84%
    09:00 +4°C° 0 mm 2 mps 728 mmHg 81%
    10:00 +5°C° 0 mm 2 mps 728 mmHg 77%
    11:00 +6°C° 0 mm 2 mps 728 mmHg 74%
    12:00 +7°C° 0 mm 2 mps 728 mmHg 70%
    13:00 +8°C° 0 mm 2 mps 728 mmHg 67%
    14:00 +9°C° 0 mm 2 mps 727 mmHg 64%
    15:00 +9°C° 0 mm 2 mps 727 mmHg 67%
    16:00 +9°C° 0 mm 1 mps 727 mmHg 70%
    17:00 +8°C° 0 mm 1 mps 727 mmHg 73%
    18:00 +8°C° 0 mm 1 mps 727 mmHg 76%
    19:00 +7°C° 0 mm 1 mps 727 mmHg 80%
    20:00 +6°C° 0 mm 1 mps 727 mmHg 83%
    21:00 +6°C° 0 mm 1 mps 727 mmHg 85%
    22:00 +6°C° 0 mm 1 mps 727 mmHg 87%
    23:00 +5°C° 0 mm 1 mps 727 mmHg 89%

    29 January, Wednesday

    Time Temperature Precipitation Wind Pressure Humidity
    00:00 +5°C° 0 mm 1 mps 726 mmHg 89%
    01:00 +5°C° 0 mm 1 mps 726 mmHg 89%
    02:00 +5°C° 0 mm 1 mps 726 mmHg 89%
    03:00 +5°C° 0 mm 1 mps 726 mmHg 88%
    04:00 +4°C° 0 mm 1 mps 725 mmHg 88%
    05:00 +4°C° 0 mm 1 mps 725 mmHg 87%
    06:00 +3°C° 0 mm 2 mps 725 mmHg 86%
    07:00 +3°C° 0 mm 2 mps 725 mmHg 85%
    08:00 +3°C° 0 mm 2 mps 725 mmHg 84%
    09:00 +5°C° 0 mm 2 mps 725 mmHg 78%
    10:00 +7°C° 0 mm 2 mps 725 mmHg 71%
    11:00 +8°C° 0 mm 2 mps 725 mmHg 65%
    12:00 +9°C° 0 mm 3 mps 725 mmHg 65%
    13:00 +8°C° 0 mm 4 mps 725 mmHg 65%
    14:00 +9°C° 0 mm 5 mps 725 mmHg 65%
    15:00 +8°C° 0 mm 4 mps 725 mmHg 69%
    16:00 +7°C° 0 mm 4 mps 725 mmHg 74%
    17:00 +7°C° 0 mm 3 mps 725 mmHg 79%
    18:00 +5°C° 0 mm 3 mps 725 mmHg 81%
    19:00 +6°C° 0 mm 2 mps 725 mmHg 84%
    20:00 +5°C° 0 mm 2 mps 726 mmHg 86%
    21:00 +5°C° 0 mm 2 mps 726 mmHg 85%
    22:00 +6°C° 0 mm 2 mps 726 mmHg 84%
    23:00 +6°C° 0 mm 2 mps 726 mmHg 83%

    30 January, Thursday

    Time Temperature Precipitation Wind Pressure Humidity
    00:00 +6°C° 0.2 mm 2 mps 725 mmHg 85%
    01:00 +6°C° 0.2 mm 2 mps 725 mmHg 86%
    02:00 +5°C° 0.2 mm 2 mps 725 mmHg 87%
    03:00 +4°C° 0.1 mm 3 mps 725 mmHg 87%
    04:00 +4°C° 0.1 mm 4 mps 725 mmHg 87%
    05:00 +4°C° 0.1 mm 4 mps 725 mmHg 86%
    06:00 +2°C° 0 mm 5 mps 726 mmHg 82%
    07:00 0°C° 0 mm 7 mps 726 mmHg 78%
    08:00 0°C° 0 mm 8 mps 727 mmHg 73%
    09:00 0°C° 0 mm 8 mps 727 mmHg 69%
    10:00 +2°C° 0 mm 7 mps 727 mmHg 65%
    11:00 +2°C° 0 mm 7 mps 728 mmHg 61%
    12:00 +3°C° 0 mm 7 mps 728 mmHg 55%
    13:00 +4°C° 0 mm 7 mps 728 mmHg 49%
    14:00 +4°C° 0 mm 6 mps 728 mmHg 43%
    15:00 +5°C° 0 mm 5 mps 728 mmHg 45%
    16:00 +4°C° 0 mm 4 mps 729 mmHg 47%
    17:00 +4°C° 0 mm 4 mps 729 mmHg 48%
    18:00 +3°C° 0 mm 4 mps 729 mmHg 51%
    19:00 +3°C° 0 mm 4 mps 729 mmHg 53%
    20:00 +1°C° 0 mm 5 mps 730 mmHg 56%
    21:00 +1°C° 0 mm 5 mps 730 mmHg 58%
    22:00 0°C° 0 mm 4 mps 731 mmHg 61%
    23:00 0°C° 0 mm 4 mps 731 mmHg 64%
    Show more